Location: Pensacola
(30.4142°N, 87.2155°W)
Time: 02:18:09
(UTC-06:00)

NOAA 16 DEB - Visible Passes

Search period start: 08 December 2023 00:00
Search period end: 18 December 2023 00:00
Orbit: 753 x 819 km, 99.0° (Epoch: 07 December)

Date Brightness Start Highest point End Pass type
(mag) Time Alt. Az. Time Alt. Az. Time Alt. Az.
09 Dec ? 17:17:45 10° NNW 17:20:43 15° WNW 17:23:43 10° W visible
12 Dec ? 17:25:36 10° NW 17:27:58 13° WNW 17:30:20 10° W visible
15 Dec ? 17:33:41 10° NW 17:35:07 11° WNW 17:36:34 10° W visible
